Time,TemperatureF,DewpointF,PressureIn,WindDirection,WindDirectionDegrees,WindSpeedMPH,WindSpeedGustMPH,Humidity,HourlyPrecipIn,Conditions,Clouds,dailyrainin,SoftwareType,DateUTC
2013-10-11 00:03:00,57.7,57.1,29.74,North,0,0.0,-999.0,98,-99.99,,,0.00,Acu-Link.com,2013-10-11 05:03:00,
2013-10-11 00:19:00,57.6,57.0,29.74,North,0,0.0,-999.0,98,-99.99,,,0.00,Acu-Link.com,2013-10-11 05:19:00,
2013-10-11 00:34:00,57.0,56.4,29.73,North,0,0.0,-999.0,98,-99.99,,,0.00,Acu-Link.com,2013-10-11 05:34:00,
2013-10-11 01:00:00,57.0,56.4,29.73,North,0,0.0,-999.0,98,-99.99,,,0.00,Acu-Link.com,2013-10-11 06:00:00,
2013-10-11 01:17:00,56.5,55.9,29.73,North,0,0.0,-999.0,98,-99.99,,,0.00,Acu-Link.com,2013-10-11 06:17:00,
2013-10-11 01:33:00,56.3,55.7,29.73,North,0,0.0,-999.0,98,-99.99,,,0.00,Acu-Link.com,2013-10-11 06:33:00,
2013-10-11 01:48:00,56.1,55.5,29.74,North,0,0.0,-999.0,98,-99.99,,,0.00,Acu-Link.com,2013-10-11 06:48:00,
2013-10-11 02:08:00,55.9,55.3,29.74,North,0,0.0,-999.0,98,-99.99,,,0.00,Acu-Link.com,2013-10-11 07:08:00,
2013-10-11 02:23:00,55.6,55.0,29.74,North,0,0.0,-999.0,98,-99.99,,,0.00,Acu-Link.com,2013-10-11 07:23:00,
2013-10-11 02:44:00,55.4,54.8,29.74,North,0,0.0,-999.0,98,-99.99,,,0.00,Acu-Link.com,2013-10-11 07:44:00,
2013-10-11 03:15:00,55.4,54.8,29.75,North,0,0.0,-999.0,98,-99.99,,,0.00,Acu-Link.com,2013-10-11 08:15:00,
2013-10-11 03:33:00,55.4,54.8,29.74,North,0,0.0,-999.0,98,-99.99,,,0.00,Acu-Link.com,2013-10-11 08:33:00,
2013-10-11 04:01:00,54.5,53.9,29.74,North,0,0.0,-999.0,98,-99.99,,,0.00,Acu-Link.com,2013-10-11 09:01:00,
2013-10-11 04:28:00,54.5,53.9,29.74,North,0,0.0,-999.0,98,-99.99,,,0.00,Acu-Link.com,2013-10-11 09:28:00,
2013-10-11 04:46:00,53.8,53.2,29.74,North,0,0.0,-999.0,98,-99.99,,,0.00,Acu-Link.com,2013-10-11 09:46:00,
2013-10-11 05:02:00,54.0,53.4,29.75,North,0,0.0,-999.0,98,-99.99,,,0.00,Acu-Link.com,2013-10-11 10:02:00,
2013-10-11 05:17:00,54.5,53.9,29.76,North,0,0.0,-999.0,98,-99.99,,,0.00,Acu-Link.com,2013-10-11 10:17:00,
2013-10-11 05:36:00,54.3,53.7,29.76,North,0,0.0,-999.0,98,-99.99,,,0.00,Acu-Link.com,2013-10-11 10:36:00,
2013-10-11 05:52:00,54.3,53.7,29.77,North,0,0.0,-999.0,98,-99.99,,,0.00,Acu-Link.com,2013-10-11 10:52:00,
2013-10-11 06:09:00,54.3,53.7,29.77,North,0,0.0,-999.0,98,-99.99,,,0.00,Acu-Link.com,2013-10-11 11:09:00,
2013-10-11 06:26:00,54.5,53.9,29.78,North,0,0.0,-999.0,98,-99.99,,,0.00,Acu-Link.com,2013-10-11 11:26:00,
2013-10-11 06:41:00,54.9,54.3,29.77,North,0,0.0,-999.0,98,-99.99,,,0.00,Acu-Link.com,2013-10-11 11:41:00,
2013-10-11 06:57:00,55.2,54.6,29.78,North,0,0.0,-999.0,98,-99.99,,,0.00,Acu-Link.com,2013-10-11 11:57:00,
2013-10-11 07:12:00,55.6,55.0,29.78,North,0,0.0,-999.0,98,-99.99,,,0.00,Acu-Link.com,2013-10-11 12:12:00,
2013-10-11 07:27:00,55.9,55.3,29.79,North,0,0.0,-999.0,98,-99.99,,,0.00,Acu-Link.com,2013-10-11 12:27:00,
2013-10-11 07:42:00,56.3,55.7,29.79,North,0,0.0,-999.0,98,-99.99,,,0.00,Acu-Link.com,2013-10-11 12:42:00,
2013-10-11 07:57:00,58.1,57.5,29.80,North,0,0.0,-999.0,98,-99.99,,,0.00,Acu-Link.com,2013-10-11 12:57:00,
2013-10-11 08:12:00,60.1,59.5,29.80,North,0,0.0,-999.0,98,-99.99,,,0.00,Acu-Link.com,2013-10-11 13:12:00,
2013-10-11 08:27:00,61.9,61.3,29.80,North,0,0.0,-999.0,98,-99.99,,,0.00,Acu-Link.com,2013-10-11 13:27:00,
2013-10-11 08:42:00,65.3,64.7,29.80,North,0,0.0,-999.0,98,-99.99,,,0.00,Acu-Link.com,2013-10-11 13:42:00,
2013-10-11 08:57:00,66.0,65.4,29.81,North,0,1.1,-999.0,98,-99.99,,,0.00,Acu-Link.com,2013-10-11 13:57:00,
2013-10-11 09:13:00,66.9,66.3,29.81,North,0,1.7,-999.0,98,-99.99,,,0.00,Acu-Link.com,2013-10-11 14:13:00,
2013-10-11 09:28:00,67.3,66.7,29.81,North,0,1.1,-999.0,98,-99.99,,,0.00,Acu-Link.com,2013-10-11 14:28:00,
2013-10-11 09:43:00,69.4,68.8,29.81,North,0,0.0,-999.0,98,-99.99,,,0.00,Acu-Link.com,2013-10-11 14:43:00,
2013-10-11 09:58:00,70.7,70.1,29.80,North,0,0.0,-999.0,98,-99.99,,,0.00,Acu-Link.com,2013-10-11 14:58:00,
2013-10-11 10:13:00,72.0,71.4,29.81,North,0,0.0,-999.0,98,-99.99,,,0.00,Acu-Link.com,2013-10-11 15:13:00,
2013-10-11 10:28:00,72.0,71.4,29.80,North,0,2.7,-999.0,98,-99.99,,,0.00,Acu-Link.com,2013-10-11 15:28:00,
2013-10-11 10:43:00,75.2,74.6,29.80,North,0,0.0,-999.0,98,-99.99,,,0.00,Acu-Link.com,2013-10-11 15:43:00,
2013-10-11 10:58:00,76.8,76.2,29.79,North,0,0.0,-999.0,98,-99.99,,,0.00,Acu-Link.com,2013-10-11 15:58:00,
2013-10-11 11:13:00,75.6,75.0,29.79,North,0,0.0,-999.0,98,-99.99,,,0.00,Acu-Link.com,2013-10-11 16:13:00,
2013-10-11 11:29:00,76.6,76.0,29.79,North,0,2.2,-999.0,98,-99.99,,,0.00,Acu-Link.com,2013-10-11 16:29:00,
2013-10-11 11:44:00,78.4,77.8,29.78,NNE,22,5.8,-999.0,98,-99.99,,,0.00,Acu-Link.com,2013-10-11 16:44:00,
2013-10-11 11:59:00,79.0,78.4,29.77,North,0,4.7,-999.0,98,-99.99,,,0.00,Acu-Link.com,2013-10-11 16:59:00,
2013-10-11 12:14:00,78.8,78.2,29.77,North,0,1.7,-999.0,98,-99.99,,,0.00,Acu-Link.com,2013-10-11 17:14:00,
2013-10-11 12:29:00,79.0,78.4,29.76,North,0,2.7,-999.0,98,-99.99,,,0.00,Acu-Link.com,2013-10-11 17:29:00,
2013-10-11 12:44:00,79.9,79.3,29.75,North,0,3.2,-999.0,98,-99.99,,,0.00,Acu-Link.com,2013-10-11 17:44:00,
2013-10-11 12:59:00,80.4,79.8,29.74,NNW,337,3.7,-999.0,98,-99.99,,,0.00,Acu-Link.com,2013-10-11 17:59:00,
2013-10-11 13:14:00,81.5,80.9,29.73,North,0,2.2,-999.0,98,-99.99,,,0.00,Acu-Link.com,2013-10-11 18:14:00,
2013-10-11 13:29:00,80.6,80.0,29.73,North,0,3.2,-999.0,98,-99.99,,,0.00,Acu-Link.com,2013-10-11 18:29:00,
2013-10-11 13:44:00,78.3,77.7,29.72,North,0,0.0,-999.0,98,-99.99,,,0.00,Acu-Link.com,2013-10-11 18:44:00,
2013-10-11 14:00:00,81.0,80.4,29.71,North,0,2.2,-999.0,98,-99.99,,,0.00,Acu-Link.com,2013-10-11 19:00:00,
2013-10-11 14:15:00,80.4,79.8,29.71,North,0,2.7,-999.0,98,-99.99,,,0.00,Acu-Link.com,2013-10-11 19:15:00,
2013-10-11 14:30:00,80.2,79.6,29.71,North,0,2.2,-999.0,98,-99.99,,,0.00,Acu-Link.com,2013-10-11 19:30:00,
2013-10-11 14:45:00,80.6,80.0,29.70,North,0,5.3,-999.0,98,-99.99,,,0.00,Acu-Link.com,2013-10-11 19:45:00,
2013-10-11 15:00:00,80.8,80.2,29.70,North,0,1.7,-999.0,98,-99.99,,,0.00,Acu-Link.com,2013-10-11 20:00:00,
2013-10-11 15:15:00,79.5,78.9,29.69,North,0,3.2,-999.0,98,-99.99,,,0.00,Acu-Link.com,2013-10-11 20:15:00,
2013-10-11 15:30:00,79.3,78.7,29.70,North,0,4.2,-999.0,98,-99.99,,,0.00,Acu-Link.com,2013-10-11 20:30:00,
2013-10-11 15:45:00,79.7,79.1,29.70,North,0,0.0,-999.0,98,-99.99,,,0.00,Acu-Link.com,2013-10-11 20:45:00,
2013-10-11 16:00:00,78.1,77.5,29.70,North,0,0.0,-999.0,98,-99.99,,,0.00,Acu-Link.com,2013-10-11 21:00:00,
2013-10-11 16:16:00,78.8,78.2,29.69,North,0,3.7,-999.0,98,-99.99,,,0.00,Acu-Link.com,2013-10-11 21:16:00,
2013-10-11 16:31:00,78.3,77.7,29.68,North,0,1.7,-999.0,98,-99.99,,,0.00,Acu-Link.com,2013-10-11 21:31:00,
2013-10-11 16:46:00,77.7,77.1,29.69,North,0,1.1,-999.0,98,-99.99,,,0.00,Acu-Link.com,2013-10-11 21:46:00,
2013-10-11 17:01:00,76.6,76.0,29.69,North,0,1.7,-999.0,98,-99.99,,,0.00,Acu-Link.com,2013-10-11 22:01:00,
2013-10-11 17:16:00,75.4,74.8,29.69,North,0,2.2,-999.0,98,-99.99,,,0.00,Acu-Link.com,2013-10-11 22:16:00,
2013-10-11 17:31:00,73.4,72.8,29.70,North,0,0.0,-999.0,98,-99.99,,,0.00,Acu-Link.com,2013-10-11 22:31:00,
2013-10-11 17:46:00,71.4,70.8,29.71,North,0,0.0,-999.0,98,-99.99,,,0.00,Acu-Link.com,2013-10-11 22:46:00,
2013-10-11 18:01:00,70.2,69.6,29.71,North,0,0.0,-999.0,98,-99.99,,,0.00,Acu-Link.com,2013-10-11 23:01:00,
2013-10-11 18:16:00,68.2,67.6,29.71,North,0,0.0,-999.0,98,-99.99,,,0.00,Acu-Link.com,2013-10-11 23:16:00,
2013-10-11 18:32:00,66.6,66.0,29.70,North,0,0.0,-999.0,98,-99.99,,,0.00,Acu-Link.com,2013-10-11 23:32:00,
2013-10-11 18:47:00,64.9,64.3,29.70,North,0,0.0,-999.0,98,-99.99,,,0.00,Acu-Link.com,2013-10-11 23:47:00,
2013-10-11 19:02:00,63.9,63.3,29.71,North,0,0.0,-999.0,98,-99.99,,,0.00,Acu-Link.com,2013-10-12 00:02:00,
2013-10-11 19:17:00,62.6,62.0,29.70,North,0,0.0,-999.0,98,-99.99,,,0.00,Acu-Link.com,2013-10-12 00:17:00,
2013-10-11 19:32:00,61.9,61.3,29.71,North,0,0.0,-999.0,98,-99.99,,,0.00,Acu-Link.com,2013-10-12 00:32:00,
2013-10-11 19:47:00,61.0,60.4,29.71,North,0,0.0,-999.0,98,-99.99,,,0.00,Acu-Link.com,2013-10-12 00:47:00,
2013-10-11 20:02:00,60.4,59.8,29.72,North,0,0.0,-999.0,98,-99.99,,,0.00,Acu-Link.com,2013-10-12 01:02:00,
2013-10-11 20:17:00,59.9,59.3,29.71,North,0,0.0,-999.0,98,-99.99,,,0.00,Acu-Link.com,2013-10-12 01:17:00,
2013-10-11 20:32:00,59.5,58.9,29.72,North,0,0.0,-999.0,98,-99.99,,,0.00,Acu-Link.com,2013-10-12 01:32:00,
2013-10-11 20:48:00,59.2,58.6,29.72,North,0,0.0,-999.0,98,-99.99,,,0.00,Acu-Link.com,2013-10-12 01:48:00,
2013-10-11 21:03:00,58.6,58.0,29.73,North,0,0.0,-999.0,98,-99.99,,,0.00,Acu-Link.com,2013-10-12 02:03:00,
2013-10-11 21:18:00,58.3,57.7,29.73,North,0,0.0,-999.0,98,-99.99,,,0.00,Acu-Link.com,2013-10-12 02:18:00,
2013-10-11 21:33:00,57.9,57.3,29.73,North,0,0.0,-999.0,98,-99.99,,,0.00,Acu-Link.com,2013-10-12 02:33:00,
2013-10-11 21:48:00,57.4,56.8,29.72,North,0,0.0,-999.0,98,-99.99,,,0.00,Acu-Link.com,2013-10-12 02:48:00,
2013-10-11 22:03:00,57.2,56.6,29.73,North,0,0.0,-999.0,98,-99.99,,,0.00,Acu-Link.com,2013-10-12 03:03:00,
2013-10-11 22:18:00,56.8,56.2,29.73,North,0,0.0,-999.0,98,-99.99,,,0.00,Acu-Link.com,2013-10-12 03:18:00,
2013-10-11 22:33:00,56.3,55.7,29.72,North,0,0.0,-999.0,98,-99.99,,,0.00,Acu-Link.com,2013-10-12 03:33:00,
2013-10-11 22:48:00,55.9,55.3,29.72,North,0,0.0,-999.0,98,-99.99,,,0.00,Acu-Link.com,2013-10-12 03:48:00,
2013-10-11 23:03:00,55.6,55.0,29.72,North,0,0.0,-999.0,98,-99.99,,,0.00,Acu-Link.com,2013-10-12 04:03:00,
2013-10-11 23:19:00,55.4,54.8,29.73,North,0,0.0,-999.0,98,-99.99,,,0.00,Acu-Link.com,2013-10-12 04:19:00,
2013-10-11 23:34:00,54.9,54.3,29.73,North,0,0.0,-999.0,98,-99.99,,,0.00,Acu-Link.com,2013-10-12 04:34:00,
2013-10-11 23:49:00,54.9,54.3,29.73,North,0,0.0,-999.0,98,-99.99,,,0.00,Acu-Link.com,2013-10-12 04:49:00,